When you browse on this site, cookies collect data to enhance your experience and personalize the content and advertising you see.
Visit our Privacy Policy to learn more. By continuing to use the site, you agree to this use of cookies and data.
  • en Suisse
  • Liste des pays
  • À 7 jours
  • Température de l'eau
  • Carte météo
  • Widgets météo
  • user-avatar
    Se connecter

    Météo par heure à Ipswich

    Ce jour, 13 Décembre, Vendredi

    Heure Température Précipitation Vent Pression Humidité
    00:00 +3°C° 0 mm 5 m/s 727 mmHg 94%
    01:00 +5°C° 0.4 mm 4 m/s 727 mmHg 95%
    02:00 +5°C° 0.4 mm 4 m/s 726 mmHg 96%
    03:00 +5°C° 0.4 mm 3 m/s 726 mmHg 97%
    04:00 +5°C° 0.6 mm 4 m/s 726 mmHg 96%
    05:00 +5°C° 0.6 mm 5 m/s 727 mmHg 95%
    06:00 +5°C° 0 mm 5 m/s 727 mmHg 96%
    07:00 +4°C° 0.7 mm 6 m/s 728 mmHg 93%
    08:00 +4°C° 0.7 mm 7 m/s 729 mmHg 89%
    09:00 +4°C° 0.7 mm 8 m/s 730 mmHg 86%
    10:00 +5°C° 0 mm 9 m/s 731 mmHg 84%
    11:00 +5°C° 0 mm 9 m/s 732 mmHg 83%
    12:00 +5°C° 0 mm 8 m/s 733 mmHg 82%
    13:00 +5°C° 0 mm 8 m/s 734 mmHg 80%
    14:00 +5°C° 0 mm 8 m/s 734 mmHg 77%
    15:00 +5°C° 0 mm 9 m/s 735 mmHg 75%
    16:00 +5°C° 0 mm 9 m/s 735 mmHg 76%
    17:00 +3°C° 0 mm 9 m/s 735 mmHg 77%
    18:00 +3°C° 0 mm 9 m/s 736 mmHg 77%
    19:00 +2°C° 0 mm 8 m/s 735 mmHg 78%
    20:00 +3°C° 0 mm 7 m/s 735 mmHg 79%
    21:00 +2°C° 0 mm 6 m/s 735 mmHg 80%
    22:00 +2°C° 0.1 mm 6 m/s 734 mmHg 83%
    23:00 +3°C° 0.1 mm 5 m/s 734 mmHg 86%

    Demain, 14 Décembre, Samedi

    Heure Température Précipitation Vent Pression Humidité
    00:00 +4°C° 0.1 mm 4 m/s 733 mmHg 88%
    01:00 +2°C° 0 mm 5 m/s 734 mmHg 88%
    02:00 +2°C° 0 mm 6 m/s 734 mmHg 88%
    03:00 +2°C° 0 mm 7 m/s 735 mmHg 88%
    04:00 +1°C° 0.2 mm 9 m/s 736 mmHg 87%
    05:00 +1°C° 0.2 mm 10 m/s 737 mmHg 85%
    06:00 +1°C° 0.2 mm 11 m/s 738 mmHg 84%
    07:00 +1°C° 0 mm 11 m/s 738 mmHg 79%
    08:00 +1°C° 0 mm 10 m/s 739 mmHg 75%
    09:00 +1°C° 0 mm 10 m/s 740 mmHg 71%
    10:00 +2°C° 0 mm 10 m/s 740 mmHg 71%
    11:00 +2°C° 0 mm 9 m/s 740 mmHg 72%
    12:00 +3°C° 0 mm 9 m/s 741 mmHg 73%
    13:00 +2°C° 0.2 mm 9 m/s 741 mmHg 71%
    14:00 +2°C° 0.2 mm 9 m/s 742 mmHg 68%
    15:00 +1°C° 0.2 mm 9 m/s 742 mmHg 66%
    16:00 +1°C° 0 mm 8 m/s 743 mmHg 69%
    17:00 0°C° 0 mm 8 m/s 743 mmHg 71%
    18:00 0°C° 0 mm 7 m/s 743 mmHg 74%
    19:00 +1°C° 0 mm 8 m/s 742 mmHg 75%
    20:00 +2°C° 0 mm 10 m/s 741 mmHg 75%
    21:00 +3°C° 0 mm 11 m/s 740 mmHg 76%
    22:00 +3°C° 1.3 mm 10 m/s 739 mmHg 79%
    23:00 +5°C° 1.3 mm 9 m/s 739 mmHg 83%

    Après-demain, 15 Décembre, Dimanche

    Heure Température Précipitation Vent Pression Humidité
    00:00 +5°C° 1.3 mm 9 m/s 738 mmHg 86%
    01:00 +3°C° 0.4 mm 9 m/s 738 mmHg 83%
    02:00 +3°C° 0.4 mm 9 m/s 738 mmHg 80%
    03:00 +2°C° 0.4 mm 10 m/s 739 mmHg 77%
    04:00 +2°C° 0 mm 10 m/s 739 mmHg 76%
    05:00 +1°C° 0 mm 10 m/s 740 mmHg 74%
    06:00 +1°C° 0 mm 11 m/s 741 mmHg 73%
    07:00 +1°C° 0 mm 10 m/s 743 mmHg 76%
    08:00 0°C° 0 mm 9 m/s 744 mmHg 80%
    09:00 0°C° 0 mm 8 m/s 746 mmHg 83%
    10:00 +2°C° 0 mm 7 m/s 746 mmHg 77%
    11:00 +3°C° 0 mm 7 m/s 747 mmHg 71%
    12:00 +4°C° 0 mm 7 m/s 747 mmHg 65%
    13:00 +4°C° 0 mm 8 m/s 747 mmHg 68%
    14:00 +5°C° 0 mm 9 m/s 747 mmHg 71%
    15:00 +5°C° 0 mm 9 m/s 747 mmHg 74%
    16:00 +5°C° 0 mm 9 m/s 747 mmHg 76%
    17:00 +5°C° 0 mm 9 m/s 747 mmHg 77%
    18:00 +3°C° 0 mm 9 m/s 748 mmHg 78%
    19:00 +4°C° 0 mm 8 m/s 748 mmHg 79%
    20:00 +4°C° 0 mm 8 m/s 748 mmHg 80%
    21:00 +4°C° 0 mm 8 m/s 748 mmHg 81%
    22:00 +4°C° 0.1 mm 8 m/s 748 mmHg 82%
    23:00 +4°C° 0.1 mm 8 m/s 748 mmHg 82%

    16 Décembre, Lundi

    Heure Température Précipitation Vent Pression Humidité
    00:00 +5°C° 0.1 mm 8 m/s 748 mmHg 83%
    01:00 +5°C° 0.3 mm 8 m/s 748 mmHg 84%
    02:00 +5°C° 0.3 mm 8 m/s 748 mmHg 85%
    03:00 +5°C° 0.3 mm 7 m/s 748 mmHg 86%
    04:00 +5°C° 0.2 mm 7 m/s 748 mmHg 86%
    05:00 +4°C° 0.2 mm 6 m/s 748 mmHg 86%
    06:00 +4°C° 0.2 mm 6 m/s 748 mmHg 87%
    07:00 +4°C° 0.1 mm 6 m/s 748 mmHg 87%
    08:00 +4°C° 0.1 mm 6 m/s 748 mmHg 87%
    09:00 +5°C° 0.1 mm 6 m/s 749 mmHg 87%
    10:00 +6°C° 0.1 mm 5 m/s 749 mmHg 85%
    11:00 +7°C° 0.1 mm 5 m/s 749 mmHg 82%
    12:00 +7°C° 0.1 mm 5 m/s 749 mmHg 79%
    13:00 +7°C° 0 mm 4 m/s 749 mmHg 80%
    14:00 +7°C° 0 mm 3 m/s 749 mmHg 82%
    15:00 +7°C° 0 mm 2 m/s 749 mmHg 83%
    16:00 +7°C° 0 mm 2 m/s 749 mmHg 84%
    17:00 +8°C° 0 mm 1 m/s 748 mmHg 84%
    18:00 +7°C° 0 mm 1 m/s 748 mmHg 85%
    19:00 +7°C° 0.1 mm 1 m/s 748 mmHg 86%
    20:00 +6°C° 0.1 mm 2 m/s 748 mmHg 87%
    21:00 +6°C° 0.1 mm 2 m/s 748 mmHg 87%
    22:00 +5°C° 0.9 mm 3 m/s 747 mmHg 90%
    23:00 +5°C° 0.9 mm 3 m/s 747 mmHg 92%

    17 Décembre, Mardi

    Heure Température Précipitation Vent Pression Humidité
    00:00 +5°C° 0.9 mm 3 m/s 746 mmHg 94%
    01:00 +5°C° 0.7 mm 4 m/s 746 mmHg 95%
    02:00 +5°C° 0.7 mm 4 m/s 746 mmHg 95%
    03:00 +5°C° 0.7 mm 5 m/s 745 mmHg 96%
    04:00 +5°C° 1.3 mm 5 m/s 745 mmHg 95%
    05:00 +4°C° 1.3 mm 6 m/s 745 mmHg 95%
    06:00 +4°C° 1.3 mm 6 m/s 744 mmHg 94%
    07:00 +4°C° 0.5 mm 6 m/s 745 mmHg 93%
    08:00 +4°C° 0.5 mm 6 m/s 745 mmHg 92%
    09:00 +3°C° 0.5 mm 6 m/s 746 mmHg 91%
    10:00 +4°C° 0.2 mm 6 m/s 746 mmHg 90%
    11:00 +4°C° 0.2 mm 6 m/s 747 mmHg 89%
    12:00 +4°C° 0.2 mm 6 m/s 747 mmHg 88%
    13:00 +4°C° 0 mm 6 m/s 748 mmHg 87%
    14:00 +3°C° 0 mm 5 m/s 749 mmHg 86%
    15:00 +4°C° 0 mm 4 m/s 749 mmHg 85%
    16:00 +4°C° 0 mm 4 m/s 750 mmHg 87%
    17:00 +3°C° 0 mm 4 m/s 751 mmHg 88%
    18:00 +2°C° 0 mm 3 m/s 751 mmHg 89%
    19:00 +2°C° 0 mm 3 m/s 752 mmHg 90%
    20:00 +2°C° 0 mm 3 m/s 753 mmHg 90%
    21:00 +1°C° 0 mm 3 m/s 753 mmHg 91%
    22:00 +1°C° 0 mm 3 m/s 754 mmHg 91%
    23:00 +1°C° 0 mm 3 m/s 754 mmHg 91%

    18 Décembre, Mercredi

    Heure Température Précipitation Vent Pression Humidité
    00:00 +1°C° 0 mm 3 m/s 754 mmHg 91%
    01:00 +1°C° 0 mm 3 m/s 755 mmHg 90%
    02:00 +1°C° 0 mm 3 m/s 755 mmHg 90%
    03:00 +1°C° 0 mm 3 m/s 755 mmHg 90%
    04:00 +1°C° 0 mm 3 m/s 755 mmHg 89%
    05:00 +2°C° 0 mm 2 m/s 755 mmHg 88%
    06:00 +2°C° 0 mm 2 m/s 755 mmHg 87%
    07:00 +2°C° 0 mm 2 m/s 756 mmHg 88%
    08:00 +3°C° 0 mm 2 m/s 756 mmHg 88%
    09:00 +3°C° 0 mm 2 m/s 756 mmHg 89%
    10:00 +4°C° 0 mm 2 m/s 756 mmHg 89%
    11:00 +5°C° 0 mm 3 m/s 756 mmHg 89%
    12:00 +7°C° 0 mm 3 m/s 756 mmHg 88%
    13:00 +5°C° 0 mm 3 m/s 756 mmHg 90%
    14:00 +5°C° 0 mm 3 m/s 756 mmHg 91%
    15:00 +5°C° 0 mm 3 m/s 756 mmHg 93%
    16:00 +4°C° 0 mm 3 m/s 756 mmHg 93%
    17:00 +3°C° 0 mm 3 m/s 756 mmHg 93%
    18:00 +2°C° 0 mm 3 m/s 756 mmHg 93%
    19:00 +3°C° 0 mm 3 m/s 756 mmHg 93%
    20:00 +3°C° 0 mm 3 m/s 756 mmHg 93%
    21:00 +3°C° 0 mm 3 m/s 756 mmHg 92%
    22:00 +3°C° 0 mm 4 m/s 755 mmHg 91%
    23:00 +3°C° 0 mm 4 m/s 755 mmHg 90%
    Voir plus